Proserpine, Queensland

3:01 PM AEST on August 29, 2016 (GMT +1000)
Proserpine

Weather History for 94365 - May, 2014

Change the Weather History Date:

Wednesday, May 14, 2014

  Actual Average Record
Temperature  
Mean Temperature 72 °F -  
Max Temperature 77 °F - - ()
Min Temperature 67 °F - - ()
Cooling Degree Days 7    
Growing Degree Days 22 (Base 50)    
Moisture  
Dew Point 66 °F    
Average Humidity 84    
Maximum Humidity 94    
Minimum Humidity 63    
Precipitation  
Precipitation 0.04 in - - ()
Sea Level Pressure  
Sea Level Pressure 30.05 in    
Wind  
Wind Speed 11 mph ()    
Max Wind Speed 20 mph    
Max Gust Speed -    
Visibility 6.4 miles    
Events      
T = Trace of Precipitation, MM = Missing Value Source: Averaged Metar Reports

Daily Weather History Graph

Daily Weather History Graph

Search for Another Location

Airport or City:

Trip Planner

Search our weather history database for the weather conditions in past years. The results will help you decide how hot, cold, wet, or windy it might be!

Date:

Astronomy

May. 14, 2014 Rise Set
Actual Time 6:27 AM AEST 5:36 PM AEST
Civil Twilight 6:03 AM AEST 6:00 PM AEST
Nautical Twilight 5:37 AM AEST 6:26 PM AEST
Astronomical Twilight 5:10 AM AEST 6:53 PM AEST
Moon 5:15 PM AEST (5/14) 5:34 AM AEST (5/14)
Length of Visible Light 11h 56m
Length of Day
11h 09m
Waxing Gibbous, 99% of the Moon is Illuminated
May 14
Waxing Gibbous
May 15
Full
May 21
Last Quarter
May 29
New
Jun 6
First Quarter

Hourly Weather History & Observations

Time (AEST) Temp. Dew Point Humidity Pressure Visibility Wind Dir Wind Speed Gust Speed Precip Events Conditions
12:00 AM 68 °F 66 °F 91% 30.09 in - SSE 11.5 mph - -  
12:00 AM 68.0 °F 66.2 °F 94% 30.09 in 6.2 mi SSE 11.5 mph - N/A   Mostly Cloudy
1:00 AM 68.0 °F 66.2 °F 94% 30.06 in 6.2 mi SSE 11.5 mph - N/A   Unknown
2:00 AM 68.0 °F 66.2 °F 94% 30.04 in 6.2 mi SSE 11.5 mph - N/A   Unknown
3:00 AM 69 °F 66 °F 87% 30.05 in - SSE 11.5 mph - -  
4:00 AM 69.8 °F 66.2 °F 88% 30.04 in 6.2 mi South 10.4 mph - N/A   Unknown
5:00 AM 69.8 °F 64.4 °F 83% 30.04 in 6.2 mi SSE 13.8 mph - N/A   Unknown
6:00 AM 69 °F 65 °F 81% 30.04 in - SSE 12.7 mph - -  
6:00 AM 69.8 °F 64.4 °F 83% 30.04 in 6.2 mi SSE 12.7 mph - N/A   Unknown
7:00 AM 69.8 °F 64.4 °F 83% 30.06 in 6.2 mi South 9.2 mph - N/A   Mostly Cloudy
8:00 AM 69.8 °F 64.4 °F 83% 30.06 in 6.2 mi SSE 12.7 mph - N/A   Mostly Cloudy
9:00 AM 71 °F 65 °F 77% 30.09 in 12 mi SSE 15.0 mph - -   Partly Cloudy
9:00 AM 71.6 °F 66.2 °F 83% 30.09 in 6.2 mi SSE 15.0 mph - N/A   Overcast
10:00 AM 75.2 °F 66.2 °F 73% 30.09 in 6.2 mi SSE 13.8 mph - N/A   Overcast
11:00 AM 75.2 °F 66.2 °F 73% 30.06 in 6.2 mi SSE 13.8 mph - N/A   Overcast
12:00 PM 76 °F 66 °F 63% 30.04 in - SE 19.6 mph - -  
12:00 PM 77.0 °F 66.2 °F 69% 30.04 in 6.2 mi SE 19.6 mph - N/A   Overcast
1:00 PM 75.2 °F 64.4 °F 69% 30.01 in 6.2 mi SE 16.1 mph - N/A   Overcast
2:00 PM 75.2 °F 64.4 °F 69% 30.01 in 6.2 mi SE 17.3 mph - N/A   Overcast
3:00 PM 74 °F 65 °F 66% 30.00 in 7 mi SE 10.4 mph - -   Overcast
3:00 PM 73.4 °F 66.2 °F 78% 29.98 in 6.2 mi SSE 10.4 mph - N/A   Overcast
4:00 PM 71.6 °F 66.2 °F 83% 29.98 in 6.2 mi East 15.0 mph - N/A   Overcast
5:00 PM 69.8 °F 68.0 °F 94% 30.01 in 4.3 mi ESE 9.2 mph - N/A   Overcast
6:00 PM 69 °F 67 °F 92% 30.03 in - SSE 13.8 mph - -   Overcast
6:00 PM 69.8 °F 68.0 °F 94% 30.04 in 6.2 mi SSE 13.8 mph - N/A   Overcast
7:00 PM 68.0 °F 66.2 °F 94% 30.06 in 6.2 mi SSE 10.4 mph - N/A   Overcast
8:00 PM 68.0 °F 66.2 °F 94% 30.06 in 6.2 mi SSE 16.1 mph - N/A   Overcast
9:00 PM 68 °F 65 °F 88% 30.08 in - SSE 11.5 mph - -   Overcast
9:00 PM 68.0 °F 66.2 °F 94% 30.06 in 6.2 mi SSE 11.5 mph - N/A   Overcast
10:00 PM 68.0 °F 64.4 °F 88% 30.09 in 6.2 mi South 6.9 mph - N/A   Mostly Cloudy
11:00 PM 68.0 °F 66.2 °F 94% 30.06 in 6.2 mi South 6.9 mph - N/A   Overcast